Powrót do katalogu

PRAETORIAN SDA_603

AktywnyMilitariaPO
NORAD 65566·PAYLOAD·🇺🇸 United States

Wystrzelony Sep 10, 2025 z Vandenberg Space Force Base

Loading…

Następne Przeloty (najbliższe 24 godziny)

TLE

ŚwieżeSource: Space-Track

Epoka: Sep 14, 2026, 11:32 UTC

1 65566U 25203B   26257.48097799  .00000175  00000-0  14689-3 0  9999
2 65566  81.3009 288.0348 0008705 314.5410  45.5035 13.83966163 51051

Śledź PRAETORIAN SDA_603 w czasie rzeczywistym z AllMySat

Download on the App Store